Webcams

EDPO Webcam Blick Richtung Osten (local time)

Webcam-2

Info zum Bild:

  • Blick zum Kloster Mariahilf, Entfernung ca. 3km
  • Blick zur Kirche St. Johannes, Entfernung ca. 1km
  • Blick zu den beiden Windrädern, Entfernung ca. 6km

EDPO Webcam Blick Richtung Westen (local time)

Webcam-1

Info zum Bild:

  • Blick zum Tyrolsberg, Entfernung ca. 3,5km

Dillberg Webcam Blick Richtung Osten zu EDPO (local time)

Webcam-1

Info zum Bild:

  • Blick vom Dillberg Richtung Neumarkt, Höhe 555ft über EDPO

Dillberg Webcam Blick Richtung Westen zum Sender (local time)

Webcam-1

Info zum Bild:

  • Blick vom Dillberg Sender, Höhe bis Spitze 1322ft über EDPO
  • 600m Entfernung / Sichtweite von CAM zum Dillberg Sender

Sparkasse Webcam Blick Richtung Nord-West über Neumarkt


Snapshot

Info zum Bild:

Nürnberger Fernsehturm (Rundum CAM)


METAR Informationen der nächstgelegenen Flughäfen


EDDN / Flughafen Nürnberg „Albrecht Dürer“

EDDN 251120Z 24013KT 9999 -RA BKN022 08/05 Q1003 TEMPO 24015G25KT

ETIC / Fliegerhorst Grafenwöhr AAF

ETIC 251056Z AUTO 23006KT 9999 -RA BKN012 OVC017 07/07 A2959 RMK AO2 BKN V OVC SLP028 P0001 T00710071 $

ETIH / Fliegerhorst Hohenfels AAF

ETIH 251056Z AUTO 25007G18KT 9999 -RA OVC024 08/04 A2964 RMK AO2 RAE27RAB29 SLP047 P0000 T00840044 $